CST,Max TemperatureF,Mean TemperatureF,Min TemperatureF,Max Dew PointF,MeanDew PointF,Min DewpointF,Max Humidity, Mean Humidity, Min Humidity, Max Sea Level PressureIn, Mean Sea Level PressureIn, Min Sea Level PressureIn, Max VisibilityMiles, Mean VisibilityMiles, Min VisibilityMiles, Max Wind SpeedMPH, Mean Wind SpeedMPH, Max Gust SpeedMPH,PrecipitationIn, CloudCover, Events, WindDirDegrees
2012-9-1,89,79,69,75,71,68,94,70,46,29.93,29.89,29.83,12,8,6,12,5,,0.00,6,Fog,78
2012-9-2,90,82,73,75,72,70,88,66,48,29.94,29.89,29.84,12,8,6,22,7,,0.00,6,,91
2012-9-3,88,80,71,74,71,69,89,70,49,29.98,29.92,29.85,12,8,6,22,6,,0.00,6,,91
2012-9-4,89,81,73,73,72,68,88,69,47,29.95,29.92,29.87,12,8,6,12,5,,0.00,7,Rain-Thunderstorm,122
2012-9-5,86,79,72,79,74,70,100,85,72,29.95,29.90,29.86,12,6,0,14,6,,0.02,6,Fog-Rain-Thunderstorm,127
2012-9-6,90,80,71,77,73,70,100,81,55,29.93,29.88,29.82,12,6,0,12,5,,0.01,6,Fog-Rain-Thunderstorm,228
2012-9-7,89,81,73,77,74,70,94,81,59,29.93,29.86,29.79,12,7,1,13,6,,0.00,7,Rain-Thunderstorm,144
2012-9-8,88,80,72,77,74,72,100,89,62,29.93,29.86,29.80,12,6,0,22,6,,0.63,7,Fog-Rain-Thunderstorm,178
2012-9-9,83,78,72,75,73,71,97,84,68,29.97,29.93,29.88,12,6,0,8,3,,0.00,6,Fog-Rain-Thunderstorm,302
2012-9-10,92,81,70,77,73,70,95,71,46,29.95,29.89,29.83,12,7,0,10,4,,0.00,5,Fog,100
2012-9-11,88,80,72,73,70,66,83,68,55,29.94,29.88,29.81,12,8,5,27,10,,0.00,7,Rain,88
2012-9-12,91,84,77,70,67,64,69,54,43,29.89,29.83,29.75,12,7,6,34,19,,0.00,4,,61
2012-9-13,90,80,69,73,70,66,83,70,47,29.90,29.83,29.78,12,8,6,13,6,,0.00,7,Thunderstorm,135
2012-9-14,91,81,71,73,70,68,89,65,43,29.89,29.84,29.79,12,8,6,27,9,,0.00,6,,96
2012-9-15,91,81,71,75,73,69,94,71,54,29.92,29.87,29.81,12,7,6,12,6,,0.00,6,,162
2012-9-16,90,82,74,76,72,70,94,68,43,29.96,29.88,29.81,12,8,6,12,5,,0.00,6,,124
2012-9-17,85,79,73,75,74,71,94,79,67,29.99,29.92,29.85,12,8,6,16,5,,0.00,6,,277
2012-9-18,91,80,70,77,72,69,94,75,40,29.97,29.90,29.85,12,7,1,13,4,,0.87,6,Rain-Thunderstorm,121
2012-9-19,91,81,71,75,72,66,94,71,42,29.96,29.89,29.80,12,7,1,9,3,,0.00,5,Fog-Rain,157
2012-9-20,92,81,70,75,73,70,100,76,43,29.90,29.83,29.75,12,6,0,12,2,,0.00,3,Fog,232
2012-9-21,89,81,73,75,74,72,100,80,55,29.86,29.80,29.72,12,7,1,13,4,,0.55,6,Rain-Thunderstorm,224
2012-9-22,89,80,70,73,73,70,96,83,55,29.92,29.86,29.82,12,6,2,10,4,,0.00,6,Rain-Thunderstorm,151
2012-9-23,87,79,71,76,74,72,100,87,67,29.95,29.89,29.85,12,6,2,7,4,,0.00,6,Fog-Rain,206
2012-9-24,90,80,71,73,71,69,94,74,59,29.91,29.85,29.79,12,6,0,13,4,,0.00,5,Fog,107
2012-9-25,91,80,68,75,72,68,94,71,43,29.91,29.84,29.77,12,8,6,12,6,,0.24,5,Rain,120
2012-9-26,91,81,71,77,74,71,100,82,46,29.93,29.86,29.80,12,6,0,12,4,,0.04,5,Fog-Rain-Thunderstorm,186
2012-9-27,88,80,71,77,73,70,98,79,60,29.93,29.89,29.82,12,7,6,14,6,,0.04,5,Rain,208
2012-9-28,92,80,69,75,73,69,100,81,52,29.93,29.86,29.80,12,7,1,15,4,,1.65,5,Rain-Thunderstorm,168
2012-9-29,90,80,71,75,74,72,100,86,57,29.94,29.86,29.80,12,8,6,10,3,,0.00,6,Fog-Rain-Thunderstorm,176
2012-9-30,85,78,70,75,73,70,94,83,69,29.90,29.84,29.79,12,7,4,8,4,,0.35,6,Fog-Rain,144